Location: Bemmer
(51.5498°N, 5.6249°E)
Time: 17:52:30
(UTC+00:00)

Meteor 2-12 Rocket - Pass Details

Date: 03 March 2021
Orbit: 936 x 956 km, 82.5° (Epoch: 13 April)

Event Time Altitude Azimuth Distance (km) Brightness Sun altitude
Rises 18:50:43 0° 190° (S) 3,588 7.5 -14.6°
Reaches altitude 10° 18:53:11 10° 190° (S) 2,650 6.8 -15.0°
Maximum altitude 18:59:15 86° 280° (W) 953 4.5 -15.9°
Drops below altitude 10° 19:05:24 10° 10° (N) 2,681 6.8 -16.9°
Sets 19:07:55 0° 11° (N) 3,634 7.5 -17.3°
